[[{"header":{"parameterUnit":"m.s-1","parameterCategory":1,"la1":30.2991,"la2":30.254,"lo1":-89.0895,"lo2":-89.0444,"dy":0.0017,"dx":0.0017,"nx":28,"ny":28,"refTime":"2023-08-16T03:00:00:Z","depth":0,"parameterNumber":2,"parameterNumberName":"U-component_of_WINDS"},"data":[0,0,0,0,0,0,0,0,0,0,0,0,0,0,0,0,0,0,0,0,0,0,0,0,0,0,0,0,0,0,0,0,0,0,0,0,0,0,0,0,0,0,0,0,0,0,0,0,0,0,0,0,0,0,0,0,0,0,-1.0709,-1.0708,0,-1.0602,-1.0601,-1.06,-1.0497,-1.0496,-1.0495,-1.0494,-1.0384,-1.0383,-1.0381,0,0,0,0,0,0,0,0,0,0,0,0,0,-1.0823,-1.0822,-1.0709,-1.0708,-1.0706,-1.0603,-1.0601,-1.06,-1.0498,-1.0496,-1.0494,-1.0493,-1.0385,-1.0383,-1.0381,0,0,0,0,0,0,0,0,0,0,0,0,0,-1.0751,-1.0821,-1.0709,-1.0643,-1.0636,-1.0603,-1.0601,-1.0599,-1.0498,-1.0496,-1.0494,-1.0492,-1.0386,-1.0383,-1.0381,-1.0404,0,0,-1.0373,-1.0372,0,0,0,0,0,0,0,0,-1.0755,-1.0747,-1.0654,-1.0647,-1.0639,-1.0561,-1.0601,-1.0534,-1.0498,-1.055,-1.0494,-1.0491,-1.0445,-1.0437,-1.0422,-1.0399,-1.0395,-1.0373,-1.0371,-1.037,-1.0369,0,0,0,0,0,0,0,-1.076,-1.0751,-1.0667,-1.0653,-1.0644,-1.0618,-1.0606,-1.0588,-1.051,-1.0546,-1.0538,-1.0527,-1.044,-1.0424,-1.0418,-1.0393,-1.0373,-1.037,-1.0369,-1.0368,-1.0385,-1.0387,0,0,0,0,0,0,-1.0776,-1.0756,-1.067,-1.0663,-1.0694,-1.0618,-1.0604,-1.0588,-1.051,-1.0496,-1.0529,-1.0522,-1.043,-1.0421,-1.0414,-1.0437,-1.037,-1.0368,-1.0366,-1.0383,-1.0385,-1.0387,0,0,0,0,0,0,-1.0778,-1.0769,-1.0674,-1.0707,-1.0693,-1.0618,-1.0601,-1.0587,-1.0571,-1.0497,-1.0482,-1.0527,-1.0428,-1.0418,-1.0408,-1.0432,-1.0367,-1.0364,-1.0381,-1.0384,-1.0386,-1.0483,0,0,0,0,0,0,-1.0782,-1.0771,-1.0779,-1.0708,-1.0692,-1.067,-1.0603,-1.0587,-1.0567,-1.0558,-1.0491,-1.0478,-1.0425,-1.0412,-1.0405,-1.0427,-1.0362,-1.0378,-1.0382,-1.0385,-1.0477,-1.0489,-1.0499,0,0,0,0,0,-1.0787,-1.081,-1.078,-1.077,-1.0701,-1.0672,-1.0662,-1.0601,-1.0569,-1.0577,-1.0529,-1.048,-1.043,-1.0412,-1.0403,-1.0425,-1.0376,-1.0381,-1.0385,-1.0473,-1.0487,-1.0499,0,0,0,0,0,0,-1.0886,-1.08,-1.0765,-1.0767,-1.0728,-1.0655,-1.0662,-1.0618,-1.0587,-1.058,-1.0505,-1.0491,-1.0489,-1.0456,-1.0437,-1.0444,-1.0396,-1.0399,-1.0466,-1.0479,-1.0489,-1.0498,-1.036,0,0,0,0,0,-1.0908,-1.0891,-1.0817,-1.0826,-1.0808,-1.0739,-1.0724,-1.068,-1.0636,-1.0619,-1.057,-1.053,-1.0504,-1.0489,-1.0462,-1.0472,-1.0456,-1.0482,-1.0493,-1.0502,-1.0506,-1.0509,-1.052,-1.0402,-1.0402,-1.0402,0,0,-1.0953,-1.0904,-1.0898,-1.0844,-1.0809,-1.0793,-1.0725,-1.0712,-1.07,-1.0616,-1.0604,-1.0568,-1.0517,-1.0517,-1.0515,-1.0489,-1.0535,-1.0508,-1.0516,-1.0514,-1.0515,-1.0526,-1.0536,-1.0405,-1.0404,-1.0404,0,0,-1.1028,-1.0989,-1.0992,-1.0958,-1.0905,-1.0859,-1.086,-1.0793,-1.0766,-1.0752,-1.069,-1.0674,-1.0632,-1.0599,-1.0577,-1.0639,-1.0593,-1.0632,-1.0689,-1.0692,-1.0702,-1.0709,-1.0732,-1.0741,-1.0636,-1.0636,-1.0636,0,-1.1091,-1.1065,-1.0999,-1.099,-1.0968,-1.0892,-1.0895,-1.0864,-1.0805,-1.0792,-1.0764,-1.071,-1.0671,-1.0662,-1.0678,-1.0662,-1.0661,-1.064,-1.0706,-1.0713,-1.0719,-1.074,-1.0749,-1.0641,-1.0641,-1.064,-1.064,0,-1.1146,-1.1129,-1.1138,-1.1083,-1.1062,-1.1059,-1.0992,-1.0979,-1.0937,-1.0894,-1.0881,-1.0831,-1.0793,-1.0787,-1.0746,-1.0773,-1.0759,-1.072,-1.067,-1.0737,-1.0755,-1.0763,-1.0649,-1.0647,-1.0645,-1.0644,0,0,-1.1281,-1.1189,-1.1194,-1.1168,-1.1103,-1.1089,-1.1082,-1.1045,-1.1035,-1.0996,-1.0989,-1.0956,-1.0919,-1.0893,-1.0848,-1.0851,-1.0904,-1.0811,-1.0808,-1.0831,-1.0931,-1.0962,-1.0973,-1.0873,-1.0874,-1.0875,-1.0936,0,-1.1345,-1.1328,-1.1269,-1.127,-1.1254,-1.1182,-1.1176,-1.1136,-1.1095,-1.1076,-1.103,-1.1008,-1.0961,-1.0945,-1.0945,-1.0898,-1.0924,-1.0893,-1.0866,-1.0866,-1.0882,-1.0982,-1.1014,-1.1074,-1.0943,-1.0944,-1.0945,0,-1.1418,-1.1385,-1.1385,-1.1321,-1.1312,-1.1308,-1.1269,-1.1251,-1.1204,-1.1174,-1.1146,-1.1095,-1.1084,-1.1038,-1.1022,-1.1002,-1.0988,-1.0963,-1.0964,-1.0959,-1.091,-1.0981,-1.1092,-1.1101,-1.0955,-1.0954,-1.0954,0,-1.1518,-1.1473,-1.1467,-1.1447,-1.1372,-1.1371,-1.134,-1.1291,-1.1272,-1.1238,-1.1225,-1.119,-1.1171,-1.1145,-1.1086,-1.1058,-1.1077,-1.1026,-1.1052,-1.1054,-1.106,-1.1061,-1.1171,-1.105,-1.105,-1.105,-1.1049,0,-1.1596,-1.1599,-1.151,-1.1507,-1.1508,-1.1439,-1.1442,-1.1404,-1.1361,-1.1349,-1.1284,-1.1274,-1.1196,-1.1178,-1.1131,-1.1125,-1.1117,-1.1093,-1.1081,-1.1099,-1.1103,-1.1089,-1.1084,-1.1052,-1.1051,-1.1051,-1.105,0,-1.1708,-1.1648,-1.1637,-1.1567,-1.155,-1.1554,-1.1494,-1.1488,-1.1444,-1.1429,-1.1422,-1.1352,-1.1327,-1.1265,-1.1223,-1.1192,-1.1199,-1.1176,-1.1215,-1.1207,-1.1237,-1.1236,-1.1343,-1.1354,-1.1226,-1.1228,-1.1229,0,-1.1762,-1.1763,-1.1693,-1.1681,-1.1652,-1.1633,-1.1613,-1.1545,-1.1528,-1.1475,-1.1475,-1.1444,-1.1416,-1.1379,-1.1325,-1.1292,-1.1269,-1.1309,-1.1263,-1.1282,-1.127,-1.1271,-1.1271,-1.1319,-1.1321,-1.1322,-1.1323,0,-1.1866,-1.1836,-1.1811,-1.1776,-1.1754,-1.1723,-1.1688,-1.1682,-1.1605,-1.1589,-1.1562,-1.1541,-1.1498,-1.1468,-1.1428,-1.1395,-1.1347,-1.1338,-1.1342,-1.1362,-1.1385,-1.1373,-1.1243,-1.1336,-1.1335,-1.1334,-1.1333,-1.1332,-1.195,-1.1948,-1.1899,-1.1873,-1.1839,-1.1809,-1.18,-1.1754,-1.1731,-1.1691,-1.1652,-1.1629,-1.1582,-1.1523,-1.1494,-1.1475,-1.145,-1.1457,-1.1458,-1.1461,-1.147,-1.1387,-1.1467,-1.1467,-1.1466,-1.1466,-1.1466,0,-1.2051,-1.2016,-1.1993,-1.1946,-1.1926,-1.1882,-1.1841,-1.1827,-1.1808,-1.1768,-1.1742,-1.1712,-1.1683,-1.1626,-1.1592,-1.1588,-1.1565,-1.1582,-1.1582,-1.1575,-1.1493,-1.1493,-1.1601,-1.1601,-1.1601,-1.1601,-1.1601,-1.1601,-1.2101,-1.2095,-1.206,-1.2036,-1.2,-1.1978,-1.1958,-1.1929,-1.1897,-1.1866,-1.1842,-1.1805,-1.1759,-1.1721,-1.1693,-1.1677,-1.1668,-1.1692,-1.1669,-1.1594,-1.1581,-1.1569,-1.1568,-1.169,-1.169,-1.1752,-1.1753,-1.1753]},{"header":{"parameterUnit":"m.s-1","parameterCategory":1,"la1":30.2991,"la2":30.254,"lo1":-89.0895,"lo2":-89.0444,"dy":0.0017,"dx":0.0017,"nx":28,"ny":28,"refTime":"2023-08-16T03:00:00:Z","depth":0,"parameterNumber":3,"parameterNumberName":"V-component_of_WINDS"},"data":[0,0,0,0,0,0,0,0,0,0,0,0,0,0,0,0,0,0,0,0,0,0,0,0,0,0,0,0,0,0,0,0,0,0,0,0,0,0,0,0,0,0,0,0,0,0,0,0,0,0,0,0,0,0,0,0,0,0,0.0457,0.0457,0,0.0429,0.0428,0.0428,0.0435,0.0435,0.0436,0.0436,0.0407,0.0406,0.0405,0,0,0,0,0,0,0,0,0,0,0,0,0,0.0516,0.0515,0.0457,0.0457,0.0456,0.0429,0.0428,0.0428,0.0434,0.0435,0.0436,0.0436,0.0408,0.0406,0.0405,0,0,0,0,0,0,0,0,0,0,0,0,0,0.0489,0.0514,0.0457,0.0456,0.0456,0.0429,0.0428,0.0428,0.0434,0.0435,0.0436,0.0437,0.0408,0.0406,0.0405,0.0377,0,0,0.0399,0.0398,0,0,0,0,0,0,0,0,0.0491,0.0487,0.0457,0.0456,0.0456,0.0436,0.0439,0.0411,0.0434,0.0442,0.0436,0.0437,0.0416,0.0414,0.0407,0.0375,0.0374,0.0399,0.0397,0.0397,0.0396,0,0,0,0,0,0,0,0.0493,0.0488,0.0446,0.0456,0.0456,0.0457,0.0454,0.0433,0.0425,0.0442,0.0442,0.0439,0.0416,0.0408,0.0406,0.0374,0.0399,0.0397,0.0396,0.0395,0.0317,0.0316,0,0,0,0,0,0,0.0495,0.049,0.0447,0.0445,0.0476,0.0455,0.0452,0.0441,0.0425,0.0424,0.0438,0.0439,0.0411,0.0408,0.0405,0.037,0.0397,0.0395,0.0394,0.0318,0.0317,0.0316,0,0,0,0,0,0,0.0496,0.0491,0.0448,0.0467,0.0462,0.0453,0.0442,0.0441,0.0433,0.0423,0.0421,0.0432,0.0412,0.0408,0.0383,0.0369,0.0394,0.0392,0.0319,0.0318,0.0317,0.0301,0,0,0,0,0,0,0.0498,0.0491,0.0481,0.0467,0.0461,0.0427,0.0441,0.0439,0.043,0.0431,0.0416,0.0415,0.0412,0.0386,0.0382,0.0367,0.0391,0.032,0.0319,0.0317,0.0303,0.03,0.0297,0,0,0,0,0,0.05,0.0478,0.048,0.0475,0.0448,0.0426,0.0422,0.042,0.0428,0.0417,0.0411,0.0415,0.0372,0.0384,0.0379,0.0363,0.0321,0.0319,0.0317,0.0304,0.03,0.0297,0,0,0,0,0,0,0.049,0.0476,0.0479,0.0452,0.044,0.0427,0.0413,0.0416,0.0401,0.0403,0.04,0.0397,0.0372,0.0366,0.0379,0.0335,0.0348,0.0345,0.034,0.0336,0.0333,0.0334,0.0389,0,0,0,0,0,0.0485,0.0469,0.0457,0.0435,0.0429,0.0422,0.0412,0.0411,0.0399,0.0394,0.0386,0.0374,0.0357,0.0347,0.0331,0.0303,0.0299,0.029,0.0286,0.0284,0.0281,0.0264,0.0259,0.0309,0.0309,0.0309,0,0,0.0474,0.0464,0.0454,0.0432,0.0423,0.0406,0.0418,0.0399,0.0386,0.0392,0.0367,0.0361,0.0347,0.032,0.0308,0.0314,0.0266,0.0281,0.0279,0.0277,0.0261,0.0256,0.0252,0.0308,0.0308,0.0308,0,0,0.0445,0.0436,0.0416,0.0406,0.0392,0.0388,0.0383,0.0369,0.0365,0.0341,0.0344,0.0329,0.0301,0.0291,0.0282,0.0248,0.0251,0.0244,0.0226,0.021,0.0206,0.0202,0.0189,0.0184,0.0241,0.0241,0.0241,0,0.0433,0.0407,0.0405,0.0386,0.0375,0.038,0.0358,0.0349,0.0331,0.0324,0.0331,0.0295,0.0287,0.0257,0.0248,0.0242,0.0235,0.0244,0.0207,0.0203,0.02,0.0187,0.0182,0.024,0.024,0.024,0.024,0,0.0392,0.0374,0.0359,0.034,0.0329,0.0309,0.0303,0.0292,0.0292,0.0287,0.0262,0.0252,0.0234,0.0227,0.0227,0.0197,0.0201,0.0207,0.022,0.0194,0.0182,0.0177,0.0238,0.0239,0.0239,0.0239,0,0,0.0355,0.0335,0.033,0.0321,0.0305,0.0291,0.0271,0.0253,0.0243,0.023,0.0212,0.0189,0.0194,0.0184,0.0184,0.0169,0.0142,0.0178,0.0177,0.017,0.0106,0.0099,0.0094,0.0144,0.0143,0.0143,0.0106,0,0.0323,0.0287,0.0284,0.0252,0.0234,0.0238,0.022,0.0209,0.0204,0.0188,0.0182,0.0165,0.0175,0.0168,0.0155,0.0148,0.0128,0.0151,0.0127,0.0126,0.0128,0.0087,0.0081,0.0047,0.0102,0.0101,0.01,0,0.028,0.0265,0.0231,0.0217,0.0209,0.0193,0.0176,0.0162,0.0148,0.0145,0.0134,0.0135,0.0114,0.0128,0.0099,0.0114,0.0104,0.01,0.0098,0.0094,0.011,0.0081,0.0036,0.003,0.0093,0.0094,0.0094,0,0.0254,0.0226,0.0201,0.0194,0.0177,0.0166,0.0158,0.0146,0.0135,0.012,0.0113,0.0096,0.0087,0.0074,0.007,0.0081,0.004,0.0054,0.0036,0.0036,0.0026,0.0026,-0.0023,0.0023,0.0023,0.0023,0.0023,0,0.0217,0.0196,0.0189,0.0174,0.0149,0.0147,0.0123,0.0116,0.0105,0.0088,0.0092,0.0076,0.0073,0.0056,0.0053,0.0028,0.0025,0.0021,0.002,0.0019,0.002,0.0012,0.0013,0.0021,0.0022,0.0022,0.0022,0,0.0184,0.0179,0.0152,0.0138,0.0134,0.0117,0.0105,0.009,0.0085,0.0064,0.0059,0.0051,0.0032,0.0027,0.0004,0.0002,-0.0028,-0.0025,-0.0024,-0.0024,-0.0043,-0.0042,-0.01,-0.0109,-0.0056,-0.0056,-0.0057,0,0.016,0.0143,0.0127,0.0116,0.0108,0.009,0.0079,0.0076,0.0064,0.0048,0.0034,0.0015,-0.0001,-0.0032,-0.0039,-0.0057,-0.0056,-0.0075,-0.0059,-0.0059,-0.0059,-0.0059,-0.0061,-0.0079,-0.008,-0.008,-0.0081,0,0.0117,0.0115,0.0098,0.008,0.0067,0.0053,0.0039,0.003,0.0026,0.0012,-0.0008,-0.002,-0.0044,-0.0064,-0.0081,-0.0089,-0.0086,-0.0085,-0.0091,-0.0093,-0.0092,-0.0095,-0.0034,-0.0085,-0.0084,-0.0084,-0.0084,-0.0083,0.0086,0.007,0.0057,0.0038,0.0028,0.0015,-0.0,-0.0007,-0.0024,-0.0044,-0.0044,-0.0067,-0.008,-0.0103,-0.0112,-0.013,-0.0124,-0.0131,-0.0134,-0.0136,-0.0139,-0.0088,-0.0133,-0.0132,-0.0132,-0.0132,-0.0132,0,0.0041,0.0033,0.0016,-0.0004,-0.0019,-0.0014,-0.0029,-0.0042,-0.0062,-0.0074,-0.009,-0.0113,-0.0132,-0.0141,-0.016,-0.0172,-0.0172,-0.0178,-0.0178,-0.018,-0.0142,-0.0136,-0.0178,-0.0178,-0.0178,-0.0178,-0.0178,-0.0178,0.0016,-0.001,-0.0013,-0.0045,-0.0053,-0.0076,-0.0085,-0.0096,-0.0107,-0.0133,-0.0149,-0.0155,-0.0166,-0.0186,-0.0203,-0.0205,-0.0213,-0.022,-0.0222,-0.0187,-0.0182,-0.0178,-0.0173,-0.0221,-0.0221,-0.0259,-0.0259,-0.0259]}]]